Hourly Weather Holonki

Today, 11 April, Sunday

Time Temperature Precipitation Wind Pressure Humidity
00:00 +10°C° 0 mm 1 mps 750 mmHg 73%
01:00 +10°C° 0 mm 1 mps 751 mmHg 74%
02:00 +9°C° 0 mm 2 mps 751 mmHg 72%
03:00 +9°C° 0 mm 2 mps 751 mmHg 72%
04:00 +9°C° 0 mm 2 mps 751 mmHg 72%
05:00 +8°C° 0 mm 2 mps 751 mmHg 73%
06:00 +9°C° 0 mm 2 mps 751 mmHg 72%
07:00 +9°C° 0 mm 3 mps 752 mmHg 72%
08:00 +10°C° 0 mm 3 mps 752 mmHg 72%
09:00 +12°C° 0 mm 4 mps 752 mmHg 65%
10:00 +13°C° 0 mm 5 mps 752 mmHg 59%
11:00 +15°C° 0 mm 6 mps 752 mmHg 52%
12:00 +16°C° 0 mm 7 mps 752 mmHg 49%
13:00 +16°C° 0 mm 7 mps 752 mmHg 46%
14:00 +17°C° 0 mm 8 mps 751 mmHg 43%
15:00 +17°C° 0 mm 7 mps 751 mmHg 44%
16:00 +17°C° 0 mm 7 mps 751 mmHg 46%
17:00 +17°C° 0 mm 7 mps 751 mmHg 47%
18:00 +16°C° 0 mm 7 mps 751 mmHg 49%
19:00 +14°C° 0 mm 6 mps 751 mmHg 52%
20:00 +13°C° 0 mm 6 mps 751 mmHg 54%
21:00 +13°C° 0 mm 6 mps 752 mmHg 55%
22:00 +11°C° 0 mm 6 mps 752 mmHg 56%
23:00 +11°C° 0 mm 7 mps 752 mmHg 57%

Tomorrow, 12 April, Monday

Time Temperature Precipitation Wind Pressure Humidity
00:00 +10°C° 0 mm 6 mps 752 mmHg 57%
01:00 +10°C° 0 mm 6 mps 752 mmHg 57%
02:00 +9°C° 0 mm 6 mps 752 mmHg 57%
03:00 +9°C° 0 mm 6 mps 752 mmHg 58%
04:00 +8°C° 0 mm 5 mps 751 mmHg 60%
05:00 +8°C° 0 mm 5 mps 751 mmHg 61%
06:00 +8°C° 0 mm 5 mps 751 mmHg 62%
07:00 +8°C° 0 mm 5 mps 751 mmHg 64%
08:00 +8°C° 0 mm 5 mps 751 mmHg 65%
09:00 +9°C° 0 mm 5 mps 751 mmHg 64%
10:00 +10°C° 0 mm 5 mps 751 mmHg 64%
11:00 +12°C° 0 mm 5 mps 751 mmHg 64%
12:00 +13°C° 0 mm 5 mps 751 mmHg 63%
13:00 +14°C° 0 mm 5 mps 751 mmHg 63%
14:00 +14°C° 0 mm 5 mps 750 mmHg 62%
15:00 +14°C° 0.1 mm 5 mps 750 mmHg 66%
16:00 +13°C° 0.1 mm 4 mps 750 mmHg 70%
17:00 +13°C° 0.1 mm 3 mps 749 mmHg 74%
18:00 +12°C° 0.1 mm 3 mps 750 mmHg 78%
19:00 +12°C° 0.1 mm 3 mps 750 mmHg 81%
20:00 +11°C° 0.1 mm 3 mps 750 mmHg 85%
21:00 +10°C° 0.1 mm 4 mps 750 mmHg 88%
22:00 +10°C° 0.1 mm 4 mps 751 mmHg 91%
23:00 +8°C° 0.1 mm 4 mps 751 mmHg 93%

Day after tomorrow, 13 April, Tuesday

Time Temperature Precipitation Wind Pressure Humidity
00:00 +7°C° 0 mm 4 mps 751 mmHg 92%
01:00 +5°C° 0 mm 5 mps 752 mmHg 92%
02:00 +3°C° 0 mm 5 mps 752 mmHg 91%
03:00 +3°C° 0 mm 5 mps 752 mmHg 90%
04:00 +2°C° 0 mm 5 mps 753 mmHg 89%
05:00 +3°C° 0 mm 4 mps 753 mmHg 88%
06:00 +2°C° 0 mm 5 mps 753 mmHg 86%
07:00 +2°C° 0 mm 5 mps 753 mmHg 84%
08:00 +2°C° 0 mm 5 mps 754 mmHg 82%
09:00 +3°C° 0 mm 5 mps 754 mmHg 79%
10:00 +3°C° 0 mm 5 mps 754 mmHg 76%
11:00 +5°C° 0 mm 5 mps 754 mmHg 72%
12:00 +5°C° 0 mm 5 mps 754 mmHg 72%
13:00 +5°C° 0 mm 5 mps 754 mmHg 71%
14:00 +4°C° 0 mm 6 mps 754 mmHg 71%
15:00 +5°C° 0.1 mm 5 mps 754 mmHg 70%
16:00 +5°C° 0.1 mm 5 mps 754 mmHg 69%
17:00 +5°C° 0.1 mm 5 mps 754 mmHg 68%
18:00 +3°C° 0.3 mm 5 mps 754 mmHg 70%
19:00 +3°C° 0.3 mm 5 mps 754 mmHg 72%
20:00 +3°C° 0.3 mm 5 mps 754 mmHg 74%
21:00 +2°C° 0.2 mm 5 mps 754 mmHg 78%
22:00 +2°C° 0.2 mm 6 mps 753 mmHg 81%
23:00 +1°C° 0.2 mm 6 mps 753 mmHg 84%

14 April, Wednesday

Time Temperature Precipitation Wind Pressure Humidity
00:00 +1°C° 0.3 mm 6 mps 753 mmHg 86%
01:00 -1°C° 0.3 mm 6 mps 753 mmHg 88%
02:00 -1°C° 0.3 mm 7 mps 753 mmHg 90%
03:00 -1°C° 0.2 mm 6 mps 752 mmHg 90%
04:00 -1°C° 0.2 mm 6 mps 752 mmHg 89%
05:00 -1°C° 0.2 mm 6 mps 752 mmHg 89%
06:00 -1°C° 0.4 mm 6 mps 752 mmHg 91%
07:00 -2°C° 0.4 mm 6 mps 752 mmHg 94%
08:00 -2°C° 0.4 mm 6 mps 752 mmHg 96%
09:00 -2°C° 0.6 mm 6 mps 752 mmHg 96%
10:00 -1°C° 0.6 mm 7 mps 751 mmHg 96%
11:00 -1°C° 0.6 mm 7 mps 751 mmHg 96%
12:00 -1°C° 0.4 mm 7 mps 751 mmHg 96%
13:00 -1°C° 0.4 mm 7 mps 751 mmHg 96%
14:00 0°C° 0.4 mm 7 mps 751 mmHg 95%
15:00 0°C° 0.3 mm 7 mps 751 mmHg 95%
16:00 0°C° 0.3 mm 7 mps 750 mmHg 95%
17:00 0°C° 0.3 mm 7 mps 750 mmHg 96%
18:00 0°C° 0.9 mm 7 mps 750 mmHg 96%
19:00 0°C° 0.9 mm 7 mps 750 mmHg 97%
20:00 -1°C° 0.9 mm 6 mps 750 mmHg 97%
21:00 -1°C° 0.6 mm 6 mps 750 mmHg 97%
22:00 -1°C° 0.6 mm 6 mps 750 mmHg 97%
23:00 -1°C° 0.6 mm 6 mps 750 mmHg 97%

15 April, Thursday

Time Temperature Precipitation Wind Pressure Humidity
00:00 -1°C° 0.3 mm 6 mps 749 mmHg 97%
01:00 -1°C° 0.3 mm 6 mps 749 mmHg 97%
02:00 0°C° 0.3 mm 5 mps 749 mmHg 97%
03:00 0°C° 0.1 mm 5 mps 749 mmHg 97%
04:00 0°C° 0.1 mm 5 mps 749 mmHg 97%
05:00 +1°C° 0.1 mm 5 mps 749 mmHg 97%
06:00 +1°C° 0.2 mm 5 mps 750 mmHg 97%
07:00 +1°C° 0.2 mm 5 mps 750 mmHg 97%
08:00 +1°C° 0.2 mm 5 mps 750 mmHg 97%
09:00 +1°C° 0 mm 5 mps 750 mmHg 96%
10:00 +2°C° 0 mm 5 mps 751 mmHg 95%
11:00 +2°C° 0 mm 5 mps 751 mmHg 94%
12:00 +2°C° 0 mm 5 mps 751 mmHg 93%
13:00 +2°C° 0 mm 5 mps 751 mmHg 92%
14:00 +2°C° 0 mm 5 mps 752 mmHg 91%
15:00 +2°C° 0 mm 5 mps 752 mmHg 90%
16:00 +3°C° 0 mm 5 mps 752 mmHg 89%
17:00 +3°C° 0 mm 5 mps 752 mmHg 88%
18:00 +2°C° 0 mm 5 mps 752 mmHg 89%
19:00 +2°C° 0 mm 5 mps 752 mmHg 91%
20:00 +1°C° 0 mm 5 mps 752 mmHg 93%
21:00 +1°C° 0 mm 5 mps 752 mmHg 94%
22:00 +1°C° 0 mm 4 mps 752 mmHg 95%
23:00 +1°C° 0 mm 4 mps 752 mmHg 97%

16 April, Friday

Time Temperature Precipitation Wind Pressure Humidity
00:00 +1°C° 0 mm 4 mps 752 mmHg 97%
01:00 +1°C° 0 mm 4 mps 752 mmHg 97%
02:00 +1°C° 0 mm 4 mps 752 mmHg 97%
03:00 +1°C° 0.1 mm 4 mps 752 mmHg 97%
04:00 +1°C° 0.1 mm 4 mps 752 mmHg 97%
05:00 +1°C° 0.1 mm 4 mps 752 mmHg 97%
06:00 +1°C° 0.2 mm 4 mps 752 mmHg 97%
07:00 +1°C° 0.2 mm 4 mps 752 mmHg 97%
08:00 0°C° 0.2 mm 4 mps 752 mmHg 97%
09:00 +2°C° 0.1 mm 3 mps 753 mmHg 96%
10:00 +3°C° 0.1 mm 3 mps 753 mmHg 96%
11:00 +3°C° 0.1 mm 3 mps 753 mmHg 96%
12:00 +4°C° 0 mm 4 mps 754 mmHg 94%
13:00 +5°C° 0 mm 4 mps 754 mmHg 92%
14:00 +6°C° 0 mm 5 mps 754 mmHg 90%
15:00 +6°C° 0.1 mm 4 mps 754 mmHg 91%
16:00 +5°C° 0.1 mm 4 mps 755 mmHg 92%
17:00 +5°C° 0.1 mm 4 mps 755 mmHg 92%
18:00 +5°C° 0.1 mm 4 mps 755 mmHg 93%
19:00 +5°C° 0.1 mm 5 mps 756 mmHg 93%
20:00 +5°C° 0.1 mm 5 mps 756 mmHg 93%
21:00 +3°C° 0 mm 5 mps 756 mmHg 92%
22:00 +3°C° 0 mm 5 mps 757 mmHg 92%
23:00 +3°C° 0 mm 5 mps 757 mmHg 91%
Show more